KC8OLT Weather Reports


time (UTC)temp
F
wind
direction
speed
knots
gust
knots
rain 1hr
in
rain 24hr
in
rain mn
in
humidity
%
barometer
mb
20260906173445 74 326 2.6 5.2 0.00 0.00 0.00 78 1024.0
20260906172944 75 306 2.6 2.6 0.00 0.00 0.00 79 1024.0
20260906172444 74 343 1.7 2.6 0.00 0.00 0.00 81 1024.0
20260906171945 73 283 0.9 1.7 0.00 0.00 0.00 84 1024.0
20260906171445 73 317 0.9 1.7 0.00 0.00 0.00 83 1024.0
20260906170945 72 202 0.0 0.0 0.00 0.00 0.00 84 1024.0
20260906170444 73 346 2.6 2.6 0.00 0.00 0.00 81 1024.0
20260906165944 73 341 1.7 2.6 0.00 0.00 0.00 82 1024.0
20260906165445 72 350 3.5 3.5 0.00 0.00 0.00 82 1024.0
20260906164944 72 43 1.7 1.7 0.00 0.00 0.00 84 1024.0
20260906164444 71 360 1.7 3.5 0.00 0.00 0.00 85 1024.0
20260906163944 71 305 2.6 2.6 0.00 0.00 0.00 85 1024.0
20260906163450 72 338 2.6 2.6 0.00 0.00 0.00 85 1024.0
20260906162945 72 346 2.6 3.5 0.00 0.00 0.00 84 1024.0
20260906162444 71 351 2.6 2.6 0.00 0.00 0.00 85 1024.0
20260906161944 70 328 1.7 1.7 0.00 0.00 0.00 86 1024.0
20260906161445 71 338 1.7 2.6 0.00 0.00 0.00 86 1024.0
20260906160945 70 340 0.0 0.0 0.00 0.00 0.00 87 1024.0
20260906160444 70 323 0.0 0.0 0.00 0.00 0.00 88 1024.0
20260906155944 70 338 0.0 0.0 0.00 0.00 0.00 89 1024.0
20260906155444 70 346 0.0 0.0 0.00 0.00 0.00 87 1024.0
20260906154944 70 2 0.0 0.0 0.00 0.00 0.00 88 1024.0
20260906154444 69 331 0.0 0.0 0.00 0.00 0.00 87 1024.0
20260906153944 70 317 0.0 0.0 0.00 0.00 0.00 88 1024.0
20260906153444 69 339 0.0 0.0 0.00 0.00 0.00 88 1024.0
20260906152944 69 353 0.0 0.0 0.00 0.00 0.00 87 1024.0
20260906152445 70 324 0.0 0.0 0.00 0.00 0.00 86 1024.0
20260906151944 69 344 0.0 0.0 0.00 0.00 0.00 89 1024.0
20260906151444 69 306 0.0 0.0 0.00 0.00 0.00 90 1024.0
20260906150945 68 321 0.0 0.0 0.00 0.00 0.00 91 1024.0
20260906150444 67 323 0.0 0.0 0.00 0.00 0.00 91 1024.0
20260906145945 66 322 0.0 0.0 0.00 0.00 0.00 91 1024.0
20260906145444 65 312 0.0 0.0 0.00 0.00 0.00 90 1024.0
20260906144945 65 300 0.0 0.0 0.00 0.00 0.00 88 1024.0
20260906144444 65 345 0.0 0.0 0.00 0.00 0.00 88 1024.0
20260906143944 66 328 0.0 0.0 0.00 0.00 0.00 85 1024.0
20260906143444 67 352 0.0 0.0 0.00 0.00 0.00 86 1024.0
20260906142944 67 332 0.0 0.0 0.00 0.00 0.00 89 1024.0
20260906142444 67 253 0.0 0.0 0.00 0.00 0.00 94 1024.0
20260906141944 67 320 0.0 0.0 0.00 0.00 0.00 96 1024.0
20260906141444 67 263 0.0 0.0 0.00 0.00 0.00 97 1024.0
20260906140945 67 196 0.0 0.0 0.00 0.00 0.00 98 1024.0
20260906140445 66 226 0.0 0.0 0.00 0.00 0.00 99 1024.0
20260906135945 66 261 0.0 0.0 0.00 0.00 0.00 100 1024.0
20260906135444 65 183 0.0 0.0 0.00 0.00 0.00 100 1024.0
20260906134944 64 139 0.0 0.0 0.00 0.00 0.00 100 1024.0
20260906134444 64 139 0.0 0.0 0.00 0.00 0.00 100 1024.0
20260906133944 63 133 0.0 0.0 0.00 0.00 0.00 100 1024.0
20260906133444 63 156 0.0 0.0 0.00 0.00 0.00 100 1024.0
20260906132944 63 204 0.0 0.0 0.00 0.00 0.00 100 1024.0
20260906132444 62 204 0.0 0.0 0.00 0.00 0.00 100 1024.0
20260906131944 62 204 0.0 0.0 0.00 0.00 0.00 100 1024.0
20260906131444 62 148 0.0 0.0 0.00 0.00 0.00 100 1024.0
20260906130945 62 157 0.0 0.0 0.00 0.00 0.00 100 1024.0
20260906130445 62 204 0.0 0.0 0.00 0.00 0.00 100 1024.0
20260906125945 62 181 0.0 0.0 0.00 0.00 0.00 100 1024.0
20260906125445 62 187 0.0 0.0 0.00 0.00 0.00 100 1024.0
20260906124944 61 193 0.0 0.0 0.00 0.00 0.00 100 1024.0
20260906124500 61 227 0.0 0.0 0.00 0.00 0.00 100 1024.0
20260906123944 61 193 0.0 0.0 0.00 0.00 0.00 100 1024.0
20260906123444 61 195 0.0 0.0 0.00 0.00 0.00 100 1024.0
20260906122945 61 191 0.0 0.0 0.00 0.00 0.00 100 1024.0
20260906122444 60 194 0.0 0.0 0.00 0.00 0.00 100 1023.0
20260906121944 60 153 0.0 0.0 0.00 0.00 0.00 100 1023.0
20260906121444 60 179 0.0 0.0 0.00 0.00 0.00 100 1023.0
20260906120944 60 176 0.0 0.0 0.00 0.00 0.00 100 1023.0
20260906120444 60 194 0.0 0.0 0.00 0.00 0.00 100 1023.0
20260906115944 60 171 0.0 0.0 0.00 0.00 0.00 100 1023.0
20260906115444 60 153 0.0 0.0 0.00 0.00 0.00 100 1023.0
20260906114944 60 166 0.0 0.0 0.00 0.00 0.00 100 1023.0
20260906114444 60 153 0.0 0.0 0.00 0.00 0.00 100 1023.0
20260906113944 60 175 0.0 0.0 0.00 0.00 0.00 100 1023.0
20260906113445 60 152 0.0 0.0 0.00 0.00 0.00 100 1023.0
20260906112944 60 175 0.0 0.0 0.00 0.00 0.00 100 1023.0
20260906112444 60 148 0.0 0.0 0.00 0.00 0.00 100 1023.0
20260906111945 60 150 0.0 0.0 0.00 0.00 0.00 100 1023.0
20260906111444 60 158 0.0 0.0 0.00 0.00 0.00 100 1023.0
20260906110944 60 159 0.0 0.0 0.00 0.00 0.00 100 1023.0
20260906110444 60 158 0.0 0.0 0.00 0.00 0.00 100 1023.0
20260906105944 60 159 0.0 0.0 0.00 0.00 0.00 100 1023.0
20260906105445 60 179 0.0 0.0 0.00 0.00 0.00 100 1023.0
20260906104944 60 155 0.0 0.0 0.00 0.00 0.00 100 1023.0
20260906104444 60 172 0.0 0.0 0.00 0.00 0.00 100 1023.0
20260906103944 60 151 0.0 0.0 0.00 0.00 0.00 100 1023.0
20260906103444 60 157 0.0 0.0 0.00 0.00 0.00 100 1023.0
20260906102944 60 153 0.0 0.0 0.00 0.00 0.00 100 1023.0
20260906102444 60 161 0.0 0.0 0.00 0.00 0.00 100 1023.0
20260906101944 60 174 0.0 0.0 0.00 0.00 0.00 100 1023.0
20260906101445 60 143 0.0 0.0 0.00 0.00 0.00 100 1023.0
20260906100944 60 155 0.0 0.0 0.00 0.00 0.00 100 1023.0
20260906100444 60 156 0.0 0.0 0.00 0.00 0.00 100 1023.0
20260906095944 60 156 0.0 0.0 0.00 0.00 0.00 100 1023.0
20260906095444 60 160 0.0 0.0 0.00 0.00 0.00 100 1023.0
20260906094945 60 163 0.0 0.0 0.00 0.00 0.00 100 1023.0
20260906094444 60 179 0.0 0.0 0.00 0.00 0.00 100 1023.0
20260906093944 60 146 0.0 0.0 0.00 0.00 0.00 100 1023.0
20260906093444 60 151 0.0 0.0 0.00 0.00 0.00 100 1022.0
20260906092944 60 152 0.0 0.0 0.00 0.00 0.00 100 1022.0
20260906092444 60 149 0.0 0.0 0.00 0.00 0.00 100 1023.0
20260906091944 59 148 0.0 0.0 0.00 0.00 0.00 100 1022.0
20260906091444 59 162 0.0 0.0 0.00 0.00 0.00 100 1022.0
20260906090945 59 145 0.0 0.0 0.00 0.00 0.00 100 1022.0
20260906090444 59 150 0.0 0.0 0.00 0.00 0.00 100 1022.0
20260906085943 59 140 0.0 0.0 0.00 0.00 0.00 100 1022.0
20260906085444 59 139 0.0 0.0 0.00 0.00 0.00 100 1023.0
20260906084945 59 138 0.0 0.0 0.00 0.00 0.00 100 1022.0
20260906084444 59 148 0.0 0.0 0.00 0.00 0.00 100 1022.0
20260906083944 60 126 0.0 0.0 0.00 0.00 0.00 100 1023.0
20260906083444 60 224 0.0 0.0 0.00 0.00 0.00 100 1023.0
20260906082944 60 238 0.0 0.0 0.00 0.00 0.00 100 1023.0
20260906082444 60 337 0.0 0.0 0.00 0.00 0.00 100 1022.0
20260906081945 60 203 0.0 0.0 0.00 0.00 0.00 100 1022.0
20260906081444 60 221 0.0 0.0 0.00 0.00 0.00 100 1022.0
20260906080944 60 146 0.0 0.0 0.00 0.00 0.00 100 1022.0
20260906080444 60 203 0.0 0.0 0.00 0.00 0.00 99 1022.0
20260906075944 60 107 0.0 0.0 0.00 0.00 0.00 99 1022.0
20260906075444 60 153 0.0 0.0 0.00 0.00 0.00 99 1022.0
20260906074944 61 201 0.0 0.0 0.00 0.00 0.00 99 1022.0
20260906074444 61 273 0.0 0.0 0.00 0.00 0.00 99 1022.0
20260906073944 61 120 0.0 0.0 0.00 0.00 0.00 99 1022.0
20260906073445 61 132 0.0 0.0 0.00 0.00 0.00 99 1022.0
20260906072944 61 150 0.0 0.0 0.00 0.00 0.00 99 1023.0
20260906072444 61 137 0.0 0.0 0.00 0.00 0.00 99 1023.0
20260906071944 61 125 0.0 0.0 0.00 0.00 0.00 99 1023.0
20260906071444 61 121 0.0 0.0 0.00 0.00 0.00 100 1023.0
20260906070944 61 127 0.0 0.0 0.00 0.00 0.00 100 1023.0
20260906070445 61 131 0.0 0.0 0.00 0.00 0.00 100 1023.0
20260906065944 60 211 0.0 0.0 0.00 0.00 0.00 100 1023.0
20260906065444 61 154 0.0 0.0 0.00 0.00 0.00 100 1023.0
20260906064944 60 147 0.0 0.0 0.00 0.00 0.00 100 1023.0
20260906064444 60 140 0.0 0.0 0.00 0.00 0.00 100 1023.0
20260906063944 60 150 0.0 0.0 0.00 0.00 0.00 100 1023.0
20260906063444 60 122 0.0 0.0 0.00 0.00 0.00 100 1023.0
20260906062944 60 134 0.0 0.0 0.00 0.00 0.00 100 1023.0
20260906062444 60 180 0.0 0.0 0.00 0.00 0.00 100 1023.0
20260906061944 60 200 0.0 0.0 0.00 0.00 0.00 100 1023.0
20260906061445 60 142 0.0 0.0 0.00 0.00 0.00 100 1023.0
20260906060945 60 134 0.0 0.0 0.00 0.00 0.00 100 1023.0
20260906060444 60 154 0.0 0.0 0.00 0.00 0.00 100 1023.0
20260906055945 60 176 0.0 0.0 0.00 0.00 0.00 100 1023.0
20260906055444 60 156 0.0 0.0 0.00 0.00 0.00 100 1023.0
20260906054944 60 186 0.0 0.0 0.00 0.00 0.00 100 1023.0
20260906054445 60 179 0.0 0.0 0.00 0.00 0.00 100 1023.0
20260906053944 60 179 0.0 0.0 0.00 0.00 0.00 100 1022.0
20260906053444 60 174 0.0 0.0 0.00 0.00 0.00 100 1023.0
20260906052944 60 204 0.0 0.0 0.00 0.00 0.00 100 1022.0
20260906052444 60 147 0.0 0.0 0.00 0.00 0.00 100 1022.0
20260906051944 60 162 0.0 0.0 0.00 0.00 0.00 100 1022.0
20260906051445 60 170 0.0 0.0 0.00 0.00 0.00 100 1022.0
20260906050949 60 156 0.0 0.0 0.00 0.00 0.00 100 1022.0
20260906050444 60 169 0.0 0.0 0.00 0.00 0.00 100 1022.0
20260906045944 60 153 0.0 0.0 0.00 0.00 0.00 100 1022.0
20260906045444 60 212 0.0 0.0 0.00 0.00 0.00 100 1022.0
20260906044944 60 154 0.0 0.0 0.00 0.00 0.00 100 1022.0
20260906044444 60 145 0.0 0.0 0.00 0.00 0.00 100 1022.0
20260906043944 60 160 0.0 0.0 0.00 0.00 0.00 100 1022.0
20260906043444 60 146 0.0 0.0 0.00 0.00 0.00 100 1022.0
20260906042944 60 140 0.0 0.0 0.00 0.00 0.00 100 1022.0
20260906042444 60 154 0.0 0.0 0.00 0.00 0.00 100 1022.0
20260906041944 60 137 0.0 0.0 0.00 0.00 0.00 100 1022.0
20260906041444 60 172 0.0 0.0 0.00 0.00 0.00 100 1022.0
20260906040944 60 133 0.0 0.0 0.00 0.00 0.00 100 1022.0
20260906040444 60 157 0.0 0.0 0.00 0.00 0.00 100 1022.0
20260906035944 60 154 0.0 0.0 0.00 0.00 0.00 100 1022.0
20260906035445 60 198 0.0 0.0 0.00 0.00 0.00 100 1022.0
20260906034944 60 153 0.0 0.0 0.00 0.00 0.00 100 1022.0
20260906034444 60 149 0.0 0.0 0.00 0.00 0.00 100 1022.0
20260906033945 60 221 0.0 0.0 0.00 0.00 0.00 100 1022.0
20260906033444 60 160 0.0 0.0 0.00 0.00 0.00 100 1022.0
20260906032944 60 201 0.0 0.0 0.00 0.00 0.00 100 1022.0
20260906032444 60 137 0.0 0.0 0.00 0.00 0.00 99 1022.0
20260906031944 60 161 0.0 0.0 0.00 0.00 0.00 99 1022.0
20260906031444 60 156 0.0 0.0 0.00 0.00 0.00 99 1022.0
20260906030944 60 201 0.0 0.0 0.00 0.00 0.00 99 1022.0
20260906030444 60 199 0.0 0.0 0.00 0.00 0.00 99 1022.0
20260906025944 60 202 0.0 0.0 0.00 0.00 0.00 99 1022.0
20260906025444 60 182 0.0 0.0 0.00 0.00 0.00 99 1022.0
20260906024944 60 188 0.0 0.0 0.00 0.00 0.00 99 1022.0
20260906024444 60 206 0.0 0.0 0.00 0.00 0.00 99 1022.0
20260906023944 60 167 0.0 0.0 0.00 0.00 0.00 99 1022.0
20260906023444 60 156 0.0 0.0 0.00 0.00 0.00 99 1022.0
20260906022944 61 152 0.0 0.0 0.00 0.00 0.00 99 1022.0
20260906022444 61 196 0.0 0.0 0.00 0.00 0.00 99 1022.0
20260906021944 61 214 0.0 0.0 0.00 0.00 0.00 99 1022.0
20260906021444 61 187 0.0 0.0 0.00 0.00 0.00 98 1022.0
20260906020944 61 212 0.0 0.0 0.00 0.00 0.00 98 1022.0
20260906020444 61 210 0.0 0.0 0.00 0.00 0.00 98 1021.0
20260906015945 61 192 0.0 0.0 0.00 0.00 0.00 98 1021.0
20260906015444 61 195 0.0 0.0 0.00 0.00 0.00 98 1021.0
20260906014945 61 187 0.0 0.0 0.00 0.00 0.00 98 1021.0
20260906014445 62 218 0.0 0.0 0.00 0.00 0.00 97 1021.0
20260906013944 62 160 0.0 0.0 0.00 0.00 0.00 97 1021.0
20260906013444 62 150 0.0 0.0 0.00 0.00 0.00 97 1021.0
20260906012944 62 164 0.0 0.0 0.00 0.00 0.00 97 1021.0
20260906012444 62 189 0.0 0.0 0.00 0.00 0.00 96 1021.0
20260906011945 63 210 0.0 0.0 0.00 0.00 0.00 96 1021.0
20260906011445 63 210 0.0 0.0 0.00 0.00 0.00 96 1021.0
20260906010945 63 231 0.0 0.0 0.00 0.00 0.00 96 1021.0
20260906010444 63 234 0.0 0.0 0.00 0.00 0.00 95 1021.0
20260906005944 63 232 0.0 0.0 0.00 0.00 0.00 95 1021.0
20260906005444 63 260 0.0 0.0 0.00 0.00 0.00 95 1021.0
20260906004944 64 224 0.0 0.0 0.00 0.00 0.00 94 1021.0
20260906004446 64 234 0.0 0.0 0.00 0.00 0.00 94 1021.0
20260906003944 64 218 0.0 0.0 0.00 0.00 0.00 93 1021.0
20260906003445 65 245 0.0 0.0 0.00 0.00 0.00 92 1021.0
20260906002944 65 271 0.0 0.0 0.00 0.00 0.00 92 1021.0
20260906002444 65 277 0.0 0.0 0.00 0.00 0.00 91 1021.0
20260906001944 66 343 0.0 0.0 0.00 0.00 0.00 90 1021.0
20260906001444 66 13 0.0 1.7 0.00 0.00 0.00 90 1021.0
20260906000944 66 356 0.0 2.6 0.00 0.00 0.00 90 1021.0
20260906000444 66 329 1.7 2.6 0.00 0.00 0.00 90 1021.0
20260905235945 67 59 0.0 1.7 0.00 0.00 0.00 90 1021.0
20260905235444 67 328 0.0 1.7 0.00 0.00 0.00 89 1021.0
20260905234944 67 238 0.0 0.0 0.00 0.00 0.00 89 1021.0
20260905234444 67 18 0.9 2.6 0.00 0.00 0.00 89 1021.0
20260905233944 67 359 2.6 2.6 0.00 0.00 0.00 89 1022.0
20260905233444 67 88 0.0 2.6 0.00 0.00 0.00 88 1022.0
20260905232944 67 296 0.0 0.0 0.00 0.00 0.00 88 1022.0
20260905232445 67 295 0.0 1.7 0.00 0.00 0.00 88 1022.0
20260905231944 68 295 0.9 1.7 0.00 0.00 0.00 87 1022.0
20260905231444 68 19 0.9 2.6 0.00 0.00 0.00 86 1022.0
20260905230944 68 289 0.9 2.6 0.00 0.00 0.00 86 1022.0
20260905230444 68 18 2.6 2.6 0.00 0.00 0.00 86 1022.0
20260905225944 68 312 1.7 2.6 0.00 0.00 0.00 86 1022.0
20260905225444 69 290 0.0 2.6 0.00 0.00 0.00 85 1022.0
20260905224944 69 354 1.7 2.6 0.00 0.00 0.00 85 1022.0
20260905224444 69 304 0.9 1.7 0.00 0.00 0.00 84 1022.0
20260905223945 69 315 1.7 1.7 0.00 0.00 0.00 84 1022.0
20260905223445 68 320 1.7 1.7 0.00 0.00 0.00 86 1022.0
20260905222945 68 315 1.7 2.6 0.00 0.00 0.00 86 1022.0
20260905222444 68 337 2.6 2.6 0.00 0.00 0.00 84 1022.0
20260905221944 70 89 2.6 3.5 0.00 0.00 0.00 82 1022.0
20260905221444 71 110 1.7 4.3 0.00 0.00 0.00 80 1021.0
20260905220944 71 329 2.6 5.2 0.00 0.00 0.00 81 1022.0
20260905220444 71 55 4.3 5.2 0.00 0.00 0.00 81 1022.0
20260905215944 72 13 2.6 2.6 0.00 0.00 0.00 79 1022.0
20260905215444 72 318 3.5 3.5 0.00 0.00 0.00 79 1022.0
20260905214944 72 352 3.5 3.5 0.00 0.00 0.00 79 1022.0
20260905214444 73 327 1.7 3.5 0.00 0.00 0.00 78 1022.0
20260905213945 72 229 0.9 3.5 0.00 0.00 0.00 80 1021.0
20260905213444 72 352 2.6 3.5 0.00 0.00 0.00 80 1022.0
20260905212944 72 319 2.6 2.6 0.00 0.00 0.00 79 1022.0
20260905212444 73 254 1.7 4.3 0.00 0.00 0.00 79 1022.0
20260905211944 73 342 2.6 4.3 0.00 0.00 0.00 79 1022.0
20260905211444 73 303 3.5 7.8 0.00 0.00 0.00 78 1022.0
20260905210944 72 341 1.7 2.6 0.00 0.00 0.00 79 1022.0
20260905210444 73 79 2.6 3.5 0.00 0.00 0.00 80 1021.0
20260905205945 72 235 0.9 7.8 0.00 0.00 0.00 79 1022.0
20260905205444 73 2 5.2 5.2 0.00 0.00 0.00 80 1022.0
20260905204944 72 320 4.3 4.3 0.00 0.00 0.00 79 1022.0
20260905204444 72 282 2.6 3.5 0.00 0.00 0.00 81 1022.0
20260905203944 72 345 4.3 4.3 0.00 0.00 0.00 81 1022.0
20260905203444 72 348 2.6 5.2 0.00 0.00 0.00 81 1022.0
20260905202944 73 28 2.6 3.5 0.00 0.00 0.00 80 1022.0
20260905202444 72 305 2.6 5.2 0.00 0.00 0.00 82 1022.0
20260905201944 72 295 2.6 2.6 0.00 0.00 0.00 83 1022.0
20260905201444 72 303 2.6 3.5 0.00 0.00 0.00 82 1022.0
20260905200945 72 2 1.7 4.3 0.00 0.00 0.00 84 1022.0
20260905200444 72 310 2.6 2.6 0.00 0.00 0.00 84 1022.0
20260905195944 72 299 2.6 3.5 0.00 0.00 0.00 82 1022.0
20260905195444 72 310 0.9 5.2 0.00 0.00 0.00 83 1022.0
20260905194944 72 27 2.6 4.3 0.00 0.00 0.00 84 1022.0
20260905194444 72 51 2.6 4.3 0.00 0.00 0.00 83 1022.0
20260905193944 72 156 0.9 5.2 0.00 0.00 0.00 82 1022.0
20260905193444 72 340 2.6 2.6 0.00 0.00 0.00 83 1022.0
20260905192945 72 224 2.6 6.1 0.00 0.00 0.00 83 1022.0
20260905192446 72 359 3.5 6.1 0.00 0.00 0.00 83 1022.0
20260905191944 72 42 5.2 7.8 0.00 0.00 0.00 84 1022.0
20260905191444 72 319 3.5 6.1 0.00 0.00 0.00 84 1022.0
20260905190944 71 342 4.3 7.8 0.00 0.00 0.00 85 1022.0
20260905190444 71 95 1.7 5.2 0.00 0.00 0.00 84 1022.0
20260905185945 71 39 2.6 6.1 0.00 0.00 0.00 85 1022.0
20260905185444 71 336 7.8 7.8 0.00 0.00 0.00 85 1022.0
20260905184945 71 18 6.1 7.0 0.00 0.00 0.00 85 1022.0
20260905184444 71 226 3.5 5.2 0.00 0.00 0.00 84 1022.0
20260905183944 71 341 3.5 5.2 0.00 0.00 0.00 84 1022.0
20260905183444 71 312 2.6 4.3 0.00 0.00 0.00 85 1022.0
20260905182944 71 10 2.6 3.5 0.00 0.00 0.00 84 1022.0
20260905182444 70 15 2.6 5.2 0.00 0.00 0.00 85 1022.0
20260905181944 70 349 6.1 6.1 0.00 0.00 0.00 84 1022.0
20260905181445 70 51 1.7 3.5 0.00 0.00 0.00 85 1022.0
20260905180945 70 277 0.9 5.2 0.00 0.00 0.00 83 1022.0
20260905180444 70 15 5.2 6.1 0.00 0.00 0.00 84 1022.0
20260905175944 70 302 3.5 5.2 0.00 0.00 0.00 85 1022.0
20260905175444 70 314 2.6 6.1 0.00 0.00 0.00 85 1022.0
20260905174944 71 251 3.5 4.3 0.00 0.00 0.00 84 1022.0
20260905174444 71 349 4.3 8.7 0.00 0.00 0.00 82 1022.0
20260905173944 72 344 4.3 5.2 0.00 0.00 0.00 83 1022.0